Flag for Chile Weather past 2 weeks in Iquique, Chile

Now
59 °F

Partly sunny.


Feels Like: 56 °F
Forecast: 59 / 68 °F
Wind: 15 mph from Southwest

Location: Iquique / Diego Arac

Current Time: Jul 29, 2014 at 3:46:18 PM

Latest Report: Jul 29, 2014 at 3:00 PM


Visibility: 4 mi

Pressure: 29.98 "Hg

Humidity: 63%

Dew point: 46 °F

Location of IquiqueLocation

Historic Weather in Iquique — Graph

°F

Iquique temperature yesterday

Maximum temperature yesterday: 59 °F (at 3:00 PM)
Minimum temperature yesterday: 55 °F (at 12:00 AM)
Average temperature yesterday: 57 °F

Past Weeks' High & Low Weather Summary

 TemperatureHumidityPressure
High63 °F (Jul 14, 2:00 PM)77% (Jul 14, 8:00 PM)30.18 "Hg (Jul 14, 8:00 PM)
Low50 °F (Jul 24, 5:00 AM)48% (Jul 23, 9:00 AM)29.89 "Hg (Jul 19, 4:00 PM)
Average58 °F66%30.03 "Hg
* Reported Jul 14 2:00 PM — Jul 29 2:00 PM, Iquique, Weather by CustomWeather, © 2014

Note: Actual official high and low records may vary slightly from our data, if they occured in-between our weather recording intervals... More about our weather records

Advertising

Iquique weather history for previous 24 hours

 ConditionsComfort  
Time TempWeatherWind HumidityBarometerVisibility
2:00 PM
Jul 29
59 °FPartly sunny.13 mph68%30.04 "Hg4 mi
1:00 PM59 °FPartly sunny.12 mph63%30.04 "Hg4 mi
12:00 PM59 °FScattered clouds.9 mph63%30.07 "Hg4 mi
11:00 AM59 °FSunny.8 mph63%30.04 "Hg4 mi
10:00 AM57 °FPassing clouds.2 mph67%30.07 "Hg5 mi
9:00 AM57 °FPartly sunny.3 mph67%30.09 "Hg6 mi
8:00 AM55 °FPassing clouds.10 mph67%30.04 "Hg6 mi
7:00 AM55 °FScattered clouds.6 mph67%30.04 "Hg6 mi
6:00 AM55 °FOvercast.3 mph67%30.04 "Hg5 mi
5:00 AM55 °FPassing clouds.8 mph67%30.04 "Hg5 mi
4:00 AM57 °FPassing clouds.3 mph63%30.07 "Hg5 mi
2:00 AM57 °FOvercast.3 mph67%30.09 "Hg5 mi
1:00 AM57 °FOvercast.5 mph67%30.12 "Hg5 mi
12:00 AM57 °FOvercast.3 mph67%30.09 "Hg5 mi
11:00 PM
Jul 28
57 °FOvercast.No wind67%30.09 "Hg5 mi
10:00 PM57 °FOvercast.No wind67%30.04 "Hg5 mi
9:00 PM57 °FPassing clouds.5 mph67%30.01 "Hg5 mi
8:00 PM57 °FOvercast.7 mph67%30.01 "Hg6 mi
7:00 PM57 °FOvercast.7 mph67%30.01 "Hg5 mi
6:00 PM59 °FPassing clouds.8 mph63%29.98 "Hg4 mi
5:00 PM59 °FScattered clouds.9 mph63%29.98 "Hg4 mi
4:00 PM59 °FPassing clouds.10 mph63%29.98 "Hg4 mi
3:00 PM59 °FSunny.9 mph63%30.01 "Hg4 mi
Weather by CustomWeather, © 2014

See weather overviewHow to use our weather pages